ONEWEB-0035, 45143

Orbit data source: Space-Track

ONEWEB-0035, 45143 is a payload satellite owned by One Web (UK) in LEO that was launched on Thu, 06 Feb 2020 UTC via a SOYUZ-2-1B launch vehicle from the Tyuratam Missile And Space Complex (TTMTR). Payload-class satellites include a variety of spacecraft equipped with specific instruments for various scientific and technological missions. These include communications satellites like Starlink; space stations such as the ISS; scientific satellites like the Hubble; Earth observation satellites from companies like Planet Labs, Umbra, and HawkEye 360; GPS; miniature CubeSats for education and research; and military/defense satellites.

Loading next visibility...
Identifier
45143, 2020-008N
Orbit
LEO
Last TLE update
9 hours ago
Origin
Manufacturer
One Web
Mission
Operational Commercial Communications
Bus & Motor
ARROW, Unknown motor
Mass
148 kg wet, ~140 kg dry
Launch date (UTC)
2020-02-06 (5 years ago)
Launch vehicle
SOYUZ-2-1B
Launch site
Tyuratam Missile And Space Complex (TTMTR)
Object type
Payload
Rocket body
Debris
Shape & HBR
Trap Box + 2 Pan, 5 m
Radar Cross Section
2.957 m², Large (>1 m²)

Expand to show TLE details & history

TLE from 9 hours ago
0 ONEWEB-0035
1 45143U 20008N   25182.83170138 -.00000097  00000-0 -31277-3 0  9997
2 45143  87.8832 106.1626 0002117  76.6319 283.5045 13.10375809262059
Epoch: 2025-07-01T19:57Z
TLE epoch observation values (Epoch: 2025-07-01T19:57:38.999Z)
Latitude
0.00007°
Longitude
-113.3714°
Altitude
1,224.218 km
Speed
7.243 km/s
True Right ascension
07h 04m 39s
True Declination
0° 00' 00"
Sunlit
Object was in daylight at epoch
Visualization orbit readout
Latitude
62.29206°
Longitude
-109.43467°
Altitude
1,230.885 km
Speed
7.246 km/s
Apparent Right ascension
06h 03m 16s
Apparent Declination
18° 03' 41"
Sunlit
Object is in daylight
Visualization observer readout
Local Sidereal Time
17:07:58
Azimuth
344.694° N
Elevation
-30.606°
Doppler factor
1
Orbital elements
Apogee altitude
1,220.434 km
Perigee altitude
1,217.217 km
Semi-major axis
7,596.962 km
Eccentricity
0.00021
Inclination
87.8832°
RAAN
106.1626°
Arg. of periapsis
76.6319°
True anomaly
Unknown
Mean anomaly
283.5045°
Eccentric anomaly
Unknown
Mean motion
3.27781 °/min
Orbital period
109.83 mins
BSTAR
-0.00031277
Loading maneuver chart data...
Loading SW <> Apogee altitude chart data...
Loading historical data...
Loading historical data...
Loading historical data...
Loading historical data...
Loading historical data...
Loading historical data...
Loading historical data...

ONEWEB-0035 Visibility forecast

Observer location: undefined°, undefined°

Span
Click to sort rows by Start time (UTC) header in descending order
Start Az.
Max El. time (UTC)
Max El. Az.
Max El.
End time (UTC)
End Az.
10 mins2025-07-02 05:44:24.324Z28.507° NE2025-07-02 05:49:24.324Z74.422° E21.614°2025-07-02 05:54:24.324Z122.071° SE
12 mins2025-07-02 07:34:24.324Z349.634° N2025-07-02 07:40:24.324Z260.416° W41.287°2025-07-02 07:46:24.324Z197.717° SSW
10 mins2025-07-02 18:05:24.324Z121.587° SE2025-07-02 18:09:24.324Z81.984° E23.907°2025-07-02 18:15:24.324Z25.149° NE
13 mins2025-07-02 19:53:24.324Z200.976° SSW2025-07-02 19:59:24.324Z278.101° WNW39.371°2025-07-02 20:06:24.324Z351.802° N
|